SKW6462 KOKC-KLAX

Flight info

Callsign SKW6462
Flight time N/A
Altitude 36000
Route STPHN3 ZEEWE LBL ALS/N0471F380 PEEWE Q98 HAKMN ANJLL4
Aircraft CRJ7/M-SDFGIRWY/S

Departure

Time 2026-03-26 15:48
Airport OKC Will Rogers World Airport (KOKC)

Arrival

Time N/A
Airport Los Angeles International Airport (KLAX)
Time Latitude Longitude Altitude Speed Heading
2026-03-26 14:47 35.39476 -97.59944 1295 ft 0 kts 56°
2026-03-26 15:30 35.39472 -97.59952 1295 ft 3 kts 56°
2026-03-26 15:31 35.39461 -97.59973 1295 ft 3 kts 56°
2026-03-26 15:31 35.39449 -97.59991 1294 ft 3 kts 38°
2026-03-26 15:31 35.39439 -97.59993 1294 ft 3 kts 326°
2026-03-26 15:31 35.39431 -97.59985 1294 ft 2 kts 316°
2026-03-26 15:32 35.39424 -97.59977 1294 ft 2 kts 316°
2026-03-26 15:32 35.39419 -97.59971 1294 ft 1 kts 316°
2026-03-26 15:38 35.39423 -97.59976 1294 ft 2 kts 316°
2026-03-26 15:38 35.39437 -97.59991 1294 ft 4 kts 316°
2026-03-26 15:39 35.39464 -97.60023 1293 ft 7 kts 316°
2026-03-26 15:39 35.39478 -97.60039 1293 ft 8 kts 316°
2026-03-26 15:39 35.39526 -97.60094 1292 ft 5 kts 317°
2026-03-26 15:39 35.39547 -97.60118 1291 ft 6 kts 317°
2026-03-26 15:40 35.39564 -97.60170 1289 ft 7 kts 264°
2026-03-26 15:40 35.39548 -97.60228 1289 ft 7 kts 280°
2026-03-26 15:40 35.39573 -97.60274 1289 ft 7 kts 314°
2026-03-26 15:40 35.39608 -97.60316 1288 ft 8 kts 316°
2026-03-26 15:41 35.39653 -97.60369 1287 ft 10 kts 319°
2026-03-26 15:41 35.39720 -97.60399 1286 ft 11 kts 356°
2026-03-26 15:41 35.39793 -97.60401 1286 ft 10 kts 359°
2026-03-26 15:41 35.39864 -97.60401 1287 ft 10 kts
2026-03-26 15:42 35.39930 -97.60401 1288 ft 9 kts 359°
2026-03-26 15:42 35.39989 -97.60401 1289 ft 8 kts
2026-03-26 15:42 35.40042 -97.60400 1291 ft 7 kts
2026-03-26 15:43 35.40155 -97.60401 1293 ft 10 kts 360°
2026-03-26 15:43 35.40232 -97.60401 1294 ft 12 kts 360°
2026-03-26 15:43 35.40325 -97.60402 1295 ft 15 kts 359°
2026-03-26 15:43 35.40431 -97.60401 1295 ft 15 kts 359°
2026-03-26 15:44 35.40530 -97.60402 1295 ft 7 kts 359°
2026-03-26 15:44 35.40574 -97.60424 1295 ft 6 kts 300°
2026-03-26 15:44 35.40580 -97.60468 1296 ft 5 kts 270°
2026-03-26 15:44 35.40580 -97.60508 1296 ft 5 kts 270°
2026-03-26 15:45 35.40580 -97.60556 1296 ft 6 kts 270°
2026-03-26 15:45 35.40566 -97.60573 1295 ft 3 kts 185°
2026-03-26 15:45 35.40560 -97.60573 1295 ft 0 kts 181°
2026-03-26 15:47 35.40433 -97.60574 1294 ft 45 kts 179°
2026-03-26 15:47 35.39929 -97.60573 1288 ft 98 kts 178°
2026-03-26 15:47 35.39110 -97.60570 1302 ft 134 kts 181°
2026-03-26 15:47 35.38130 -97.60552 1570 ft 146 kts 181°
2026-03-26 15:48 35.37162 -97.60645 2177 ft 137 kts 197°
2026-03-26 15:48 35.36287 -97.61073 2752 ft 133 kts 205°
2026-03-26 15:48 35.35436 -97.61513 3275 ft 133 kts 205°
2026-03-26 15:48 35.34581 -97.61943 3762 ft 133 kts 204°
2026-03-26 15:49 35.33707 -97.62378 4148 ft 138 kts 204°
2026-03-26 15:49 35.33048 -97.63204 4494 ft 151 kts 252°
2026-03-26 15:49 35.33248 -97.64565 4824 ft 172 kts 276°
2026-03-26 15:49 35.33600 -97.65988 5180 ft 178 kts 276°
2026-03-26 15:50 35.33970 -97.67464 5538 ft 184 kts 277°
2026-03-26 15:50 35.34372 -97.69002 5802 ft 195 kts 279°
2026-03-26 15:50 35.34805 -97.70617 6081 ft 204 kts 279°
2026-03-26 15:50 35.35264 -97.72330 6230 ft 224 kts 280°
2026-03-26 15:51 35.35768 -97.74238 6418 ft 246 kts 281°
2026-03-26 15:51 35.36324 -97.76302 6700 ft 264 kts 282°
2026-03-26 15:51 35.36915 -97.78484 7148 ft 273 kts 282°
2026-03-26 15:51 35.37521 -97.80698 7823 ft 275 kts 283°
2026-03-26 15:52 35.38133 -97.82927 8474 ft 278 kts 283°
2026-03-26 15:52 35.38750 -97.85175 9176 ft 277 kts 283°
2026-03-26 15:52 35.39369 -97.87414 9895 ft 278 kts 284°
2026-03-26 15:52 35.39998 -97.89672 10463 ft 282 kts 284°
2026-03-26 15:53 35.40636 -97.91960 11047 ft 284 kts 284°
2026-03-26 15:53 35.41302 -97.94239 11720 ft 284 kts 283°
2026-03-26 15:53 35.41987 -97.96550 12175 ft 291 kts 287°
2026-03-26 15:53 35.42678 -97.98927 12488 ft 305 kts 287°
2026-03-26 15:54 35.43331 -98.01187 12572 ft 324 kts 287°
2026-03-26 15:54 35.44095 -98.03817 12745 ft 340 kts 287°
2026-03-26 15:54 35.44900 -98.06575 13222 ft 345 kts 288°
2026-03-26 15:54 35.45716 -98.09360 13793 ft 349 kts 288°
2026-03-26 15:55 35.46542 -98.12169 14314 ft 351 kts 288°
2026-03-26 15:55 35.47319 -98.15009 14854 ft 351 kts 282°
2026-03-26 15:55 35.47752 -98.17958 15410 ft 352 kts 277°
2026-03-26 15:55 35.48081 -98.20940 16002 ft 351 kts 276°
2026-03-26 15:56 35.48359 -98.23880 16825 ft 345 kts 275°
2026-03-26 15:56 35.48610 -98.26853 17064 ft 355 kts 275°
2026-03-26 15:56 35.48856 -98.29852 17766 ft 351 kts 275°
2026-03-26 15:56 35.49099 -98.32836 18223 ft 354 kts 275°
2026-03-26 15:57 35.49349 -98.35854 18607 ft 356 kts 276°
2026-03-26 15:57 35.49615 -98.38905 18962 ft 358 kts 276°
2026-03-26 15:57 35.49882 -98.41947 19269 ft 364 kts 276°
2026-03-26 15:57 35.50156 -98.45031 19792 ft 362 kts 276°
2026-03-26 15:58 35.50430 -98.48143 20053 ft 368 kts 276°
2026-03-26 15:58 35.50700 -98.51243 20600 ft 366 kts 276°
2026-03-26 15:58 35.50980 -98.54385 20913 ft 369 kts 276°
2026-03-26 15:58 35.51246 -98.57438 21348 ft 370 kts 276°
2026-03-26 15:59 35.51517 -98.60579 21701 ft 372 kts 276°
2026-03-26 15:59 35.51792 -98.63769 21888 ft 378 kts 276°
2026-03-26 15:59 35.52072 -98.66974 22345 ft 376 kts 276°
2026-03-26 15:59 35.52348 -98.70204 22475 ft 384 kts 276°
2026-03-26 16:00 35.52624 -98.73467 22831 ft 385 kts 276°
2026-03-26 16:00 35.52903 -98.76740 23195 ft 386 kts 276°
2026-03-26 16:00 35.53194 -98.80036 23444 ft 388 kts 276°
2026-03-26 16:00 35.53476 -98.83342 23658 ft 390 kts 276°
2026-03-26 16:01 35.53757 -98.86654 23973 ft 391 kts 276°
2026-03-26 16:01 35.54042 -98.89987 24207 ft 393 kts 276°
2026-03-26 16:01 35.54325 -98.93334 24468 ft 395 kts 276°
2026-03-26 16:01 35.54608 -98.96695 24706 ft 397 kts 276°
2026-03-26 16:02 35.54892 -99.00068 24990 ft 397 kts 276°
2026-03-26 16:02 35.55146 -99.03071 25212 ft 399 kts 276°
2026-03-26 16:02 35.55431 -99.06462 25457 ft 400 kts 276°
2026-03-26 16:02 35.55717 -99.09864 25685 ft 401 kts 277°
2026-03-26 16:03 35.56477 -99.13145 25902 ft 402 kts 296°
2026-03-26 16:03 35.57911 -99.16100 26139 ft 404 kts 301°
2026-03-26 16:03 35.59467 -99.18981 26355 ft 405 kts 303°
2026-03-26 16:03 35.61231 -99.21697 26574 ft 408 kts 311°
2026-03-26 16:04 35.63273 -99.24134 26805 ft 411 kts 315°
2026-03-26 16:04 35.65393 -99.26499 27012 ft 412 kts 315°
2026-03-26 16:04 35.67508 -99.28873 27221 ft 412 kts 314°
2026-03-26 16:04 35.69580 -99.31314 27428 ft 413 kts 313°
2026-03-26 16:05 35.71630 -99.33790 27633 ft 414 kts 313°
2026-03-26 16:05 35.73691 -99.36265 27836 ft 415 kts 313°
2026-03-26 16:05 35.75759 -99.38747 28043 ft 415 kts 313°
2026-03-26 16:05 35.77830 -99.41232 28236 ft 416 kts 313°
2026-03-26 16:06 35.79904 -99.43724 28424 ft 417 kts 313°
2026-03-26 16:06 35.81981 -99.46221 28609 ft 418 kts 313°
2026-03-26 16:06 35.84064 -99.48731 28740 ft 420 kts 313°
2026-03-26 16:06 35.86009 -99.51074 28910 ft 421 kts 313°
2026-03-26 16:07 35.87683 -99.53090 29056 ft 421 kts 313°
2026-03-26 16:07 35.89532 -99.55319 29230 ft 421 kts 313°
2026-03-26 16:07 35.90753 -99.56795 29333 ft 422 kts 313°
2026-03-26 16:08 35.92853 -99.59329 29488 ft 423 kts 313°
2026-03-26 16:08 35.94955 -99.61868 29641 ft 423 kts 313°
2026-03-26 16:08 35.97062 -99.64417 29780 ft 424 kts 313°
2026-03-26 16:08 35.99172 -99.66971 29916 ft 425 kts 313°
2026-03-26 16:09 36.01044 -99.69238 30023 ft 426 kts 313°
2026-03-26 16:09 36.03159 -99.71802 30152 ft 426 kts 313°
2026-03-26 16:09 36.05276 -99.74371 30280 ft 427 kts 313°
2026-03-26 16:09 36.07393 -99.76939 30395 ft 427 kts 313°
2026-03-26 16:10 36.09513 -99.79517 30512 ft 428 kts 313°
2026-03-26 16:10 36.11634 -99.82097 30663 ft 428 kts 313°
2026-03-26 16:10 36.13758 -99.84682 30709 ft 429 kts 312°
2026-03-26 16:11 36.17917 -99.89749 30897 ft 430 kts 312°
2026-03-26 16:11 36.21468 -99.94082 31055 ft 431 kts 312°
2026-03-26 16:12 36.25487 -99.98993 31205 ft 432 kts 312°
2026-03-26 16:12 36.29532 -100.03944 31350 ft 433 kts 312°
2026-03-26 16:13 36.33095 -100.08308 31456 ft 434 kts 312°
2026-03-26 16:13 36.37398 -100.13594 31536 ft 435 kts 312°
2026-03-26 16:14 36.40992 -100.18007 31677 ft 435 kts 312°
2026-03-26 16:14 36.45276 -100.23283 31866 ft 434 kts 312°
2026-03-26 16:15 36.49551 -100.28561 32037 ft 433 kts 312°
2026-03-26 16:15 36.53822 -100.33833 32195 ft 432 kts 312°
2026-03-26 16:15 36.55949 -100.36463 32353 ft 431 kts 312°
2026-03-26 16:16 36.58071 -100.39087 32457 ft 430 kts 311°
2026-03-26 16:16 36.61966 -100.43916 32588 ft 429 kts 312°
2026-03-26 16:17 36.64449 -100.46993 32661 ft 429 kts 312°
2026-03-26 16:17 36.66750 -100.49856 32759 ft 428 kts 311°
2026-03-26 16:18 36.68295 -100.51777 32810 ft 428 kts 311°
2026-03-26 16:18 36.69931 -100.53808 32850 ft 428 kts 312°
2026-03-26 16:19 36.71378 -100.55611 32924 ft 428 kts 311°
2026-03-26 16:19 36.73099 -100.57755 32960 ft 428 kts 311°
2026-03-26 16:20 36.74830 -100.59908 32982 ft 429 kts 311°
2026-03-26 16:20 36.76328 -100.61779 33033 ft 428 kts 311°
2026-03-26 16:21 36.77594 -100.63362 33096 ft 428 kts 311°
2026-03-26 16:21 36.78740 -100.64791 33130 ft 428 kts 311°
2026-03-26 16:22 36.79898 -100.66233 33174 ft 428 kts 311°
2026-03-26 16:22 36.81071 -100.67700 33232 ft 427 kts 311°
2026-03-26 16:23 36.82112 -100.69001 33267 ft 427 kts 311°
2026-03-26 16:23 36.85634 -100.73406 33385 ft 427 kts 311°
2026-03-26 16:24 36.89825 -100.78656 33519 ft 427 kts 311°
2026-03-26 16:24 36.94013 -100.83908 33669 ft 426 kts 311°
2026-03-26 16:25 36.98161 -100.89195 33811 ft 424 kts 307°
2026-03-26 16:25 36.99743 -100.92258 33922 ft 417 kts 293°
2026-03-26 16:25 37.00732 -100.95243 34009 ft 415 kts 290°
2026-03-26 16:26 37.02733 -101.01572 34181 ft 413 kts 290°
2026-03-26 16:26 37.04796 -101.08205 34370 ft 410 kts 290°
2026-03-26 16:27 37.06307 -101.15018 34528 ft 407 kts 275°
2026-03-26 16:27 37.06471 -101.20468 34647 ft 404 kts 273°
2026-03-26 16:28 37.06611 -101.24062 34727 ft 403 kts 275°
2026-03-26 16:28 37.06840 -101.27260 34860 ft 401 kts 277°
2026-03-26 16:28 37.06981 -101.28864 34908 ft 400 kts 277°
2026-03-26 16:29 37.07300 -101.32431 35017 ft 399 kts 277°
2026-03-26 16:29 37.07530 -101.35087 35091 ft 398 kts 277°
2026-03-26 16:30 37.07741 -101.37517 35156 ft 396 kts 277°
2026-03-26 16:30 37.07934 -101.39814 35218 ft 395 kts 276°
2026-03-26 16:31 37.08108 -101.41947 35276 ft 394 kts 276°
2026-03-26 16:31 37.08269 -101.43981 35330 ft 393 kts 276°
2026-03-26 16:32 37.08424 -101.45985 35379 ft 392 kts 276°
2026-03-26 16:32 37.08570 -101.47864 35423 ft 391 kts 276°
2026-03-26 16:33 37.08710 -101.49678 35470 ft 390 kts 276°
2026-03-26 16:33 37.08843 -101.51385 35512 ft 390 kts 276°
2026-03-26 16:34 37.08977 -101.53095 35554 ft 389 kts 276°
2026-03-26 16:34 37.09103 -101.54695 35594 ft 388 kts 276°
2026-03-26 16:35 37.09215 -101.56115 35629 ft 387 kts 276°
2026-03-26 16:35 37.09332 -101.57603 35681 ft 386 kts 276°
2026-03-26 16:36 37.09439 -101.58952 35701 ft 386 kts 276°
2026-03-26 16:36 37.09546 -101.60308 35724 ft 385 kts 276°
2026-03-26 16:37 37.09658 -101.61739 35739 ft 385 kts 276°
2026-03-26 16:37 37.09768 -101.63142 35749 ft 385 kts 276°
2026-03-26 16:38 37.09871 -101.64454 35792 ft 385 kts 276°
2026-03-26 16:38 37.09957 -101.65559 35804 ft 385 kts 276°
2026-03-26 16:39 37.10040 -101.66640 35815 ft 385 kts 276°
2026-03-26 16:39 37.10114 -101.67590 35825 ft 385 kts 276°
2026-03-26 16:40 37.10189 -101.68553 35835 ft 385 kts 276°
2026-03-26 16:40 37.10260 -101.69453 35839 ft 385 kts 276°
2026-03-26 16:41 37.10332 -101.70385 35844 ft 385 kts 276°
2026-03-26 16:41 37.10566 -101.73400 35870 ft 386 kts 276°
2026-03-26 16:42 37.11008 -101.79161 35894 ft 386 kts 276°
2026-03-26 16:42 37.11393 -101.84174 35902 ft 387 kts 276°
2026-03-26 16:43 37.11904 -101.90903 35909 ft 389 kts 276°
2026-03-26 16:43 37.12410 -101.97656 35878 ft 390 kts 276°
2026-03-26 16:44 37.12915 -102.04412 35840 ft 391 kts 276°
2026-03-26 16:44 37.13421 -102.11198 35804 ft 391 kts 275°
2026-03-26 16:45 37.13919 -102.17998 35766 ft 392 kts 275°
2026-03-26 16:45 37.14411 -102.24743 35697 ft 393 kts 275°
2026-03-26 16:46 37.14715 -102.28943 35694 ft 394 kts 275°
2026-03-26 16:46 37.14991 -102.32764 35695 ft 394 kts 275°
2026-03-26 16:47 37.15482 -102.39611 35707 ft 395 kts 275°
2026-03-26 16:47 37.15971 -102.46474 35704 ft 396 kts 275°
2026-03-26 16:48 37.16448 -102.53244 35713 ft 397 kts 275°
2026-03-26 16:48 37.17128 -102.62989 35721 ft 398 kts 275°
2026-03-26 16:49 37.17515 -102.68580 35723 ft 398 kts 275°
2026-03-26 16:49 37.17990 -102.75506 35722 ft 399 kts 275°
2026-03-26 16:50 37.18464 -102.82449 35728 ft 400 kts 275°
2026-03-26 16:50 37.18933 -102.89409 35732 ft 401 kts 275°
2026-03-26 16:51 37.19398 -102.96382 35749 ft 402 kts 275°
2026-03-26 16:51 37.19860 -103.03340 35748 ft 403 kts 275°
2026-03-26 16:52 37.20316 -103.10301 35763 ft 403 kts 275°
2026-03-26 16:52 37.20767 -103.17138 35760 ft 404 kts 274°
2026-03-26 16:53 37.21218 -103.24168 35774 ft 405 kts 274°
2026-03-26 16:53 37.21664 -103.31219 35763 ft 406 kts 274°
2026-03-26 16:54 37.22110 -103.38228 35770 ft 406 kts 274°
2026-03-26 16:54 37.22553 -103.45293 35774 ft 407 kts 274°
2026-03-26 16:55 37.22994 -103.52378 35768 ft 407 kts 274°
2026-03-26 16:55 37.23433 -103.59468 35767 ft 408 kts 274°
2026-03-26 16:56 37.23862 -103.66564 35770 ft 408 kts 273°
2026-03-26 16:56 37.24290 -103.73667 35767 ft 409 kts 273°
2026-03-26 16:57 37.24714 -103.80782 35767 ft 409 kts 273°
2026-03-26 16:57 37.25136 -103.87900 35762 ft 409 kts 273°
2026-03-26 16:58 37.25556 -103.95030 35763 ft 410 kts 273°
2026-03-26 16:58 37.25966 -104.02168 35752 ft 410 kts 273°
2026-03-26 16:59 37.26371 -104.09254 35920 ft 410 kts 273°
2026-03-26 16:59 37.26776 -104.16401 35755 ft 410 kts 272°
2026-03-26 17:00 37.27173 -104.23486 35765 ft 411 kts 272°
2026-03-26 17:00 37.27569 -104.30594 35765 ft 411 kts 272°
2026-03-26 17:01 37.27962 -104.37763 35782 ft 412 kts 272°
2026-03-26 17:01 37.28349 -104.44940 35778 ft 412 kts 272°
2026-03-26 17:02 37.28735 -104.52120 35800 ft 412 kts 272°
2026-03-26 17:02 37.29057 -104.58095 35792 ft 413 kts 272°
2026-03-26 17:03 37.29351 -104.63719 35804 ft 413 kts 272°
2026-03-26 17:03 37.29553 -104.67646 35832 ft 413 kts 272°
2026-03-26 17:04 37.29923 -104.74854 35836 ft 414 kts 272°
2026-03-26 17:04 37.30295 -104.82074 35826 ft 414 kts 272°
2026-03-26 17:05 37.30658 -104.89302 35833 ft 415 kts 272°
2026-03-26 17:05 37.30938 -104.94886 35849 ft 415 kts 271°
2026-03-26 17:06 37.31091 -104.97912 35856 ft 415 kts 271°
2026-03-26 17:06 37.31225 -105.00645 35866 ft 416 kts 271°
2026-03-26 17:07 37.31347 -105.03187 35875 ft 416 kts 271°
2026-03-26 17:07 37.31470 -105.05738 35872 ft 417 kts 271°
2026-03-26 17:08 37.31675 -105.09940 35903 ft 417 kts 271°
2026-03-26 17:08 37.32025 -105.17188 35872 ft 418 kts 271°
2026-03-26 17:09 37.32366 -105.24379 35912 ft 418 kts 271°
2026-03-26 17:09 37.32703 -105.31670 35920 ft 418 kts 271°
2026-03-26 17:10 37.33049 -105.38974 35946 ft 419 kts 271°
2026-03-26 17:10 37.33382 -105.46290 35966 ft 420 kts 271°
2026-03-26 17:11 37.33708 -105.53599 36024 ft 421 kts 271°
2026-03-26 17:11 37.34034 -105.60942 36073 ft 421 kts 271°
2026-03-26 17:12 37.34357 -105.68288 36131 ft 421 kts 270°
2026-03-26 17:12 37.34676 -105.75622 36162 ft 420 kts 270°
2026-03-26 17:13 37.34837 -105.82926 36191 ft 418 kts 267°
2026-03-26 17:13 37.34620 -105.90232 36187 ft 417 kts 264°
2026-03-26 17:14 37.34448 -105.93868 35919 ft 417 kts 265°
2026-03-26 17:14 37.34294 -105.97457 35918 ft 417 kts 265°
2026-03-26 17:14 37.33992 -106.04725 35923 ft 416 kts 265°
2026-03-26 17:15 37.33685 -106.11985 35936 ft 416 kts 265°
2026-03-26 17:15 37.33366 -106.19264 35935 ft 416 kts 265°
2026-03-26 17:16 37.33048 -106.26425 35966 ft 415 kts 265°
2026-03-26 17:16 37.32759 -106.32784 35975 ft 416 kts 265°
2026-03-26 17:17 37.32465 -106.39192 35976 ft 416 kts 265°
2026-03-26 17:17 37.32130 -106.46465 36001 ft 417 kts 265°
2026-03-26 17:18 37.31848 -106.52550 36022 ft 418 kts 265°
2026-03-26 17:18 37.31510 -106.59656 36012 ft 418 kts 265°
2026-03-26 17:19 37.31161 -106.66948 36067 ft 419 kts 265°
2026-03-26 17:19 37.30801 -106.74258 36061 ft 420 kts 265°
2026-03-26 17:20 37.30433 -106.81563 36049 ft 419 kts 266°
2026-03-26 17:20 37.30076 -106.88857 36257 ft 418 kts 265°
2026-03-26 17:21 37.29709 -106.96146 36290 ft 418 kts 265°
2026-03-26 17:21 37.29337 -107.03426 36285 ft 418 kts 265°
2026-03-26 17:22 37.28962 -107.10692 36286 ft 417 kts 266°
2026-03-26 17:22 37.28585 -107.17941 36270 ft 415 kts 266°
2026-03-26 17:23 37.28204 -107.25177 36233 ft 415 kts 265°
2026-03-26 17:23 37.27815 -107.32361 36177 ft 415 kts 266°
2026-03-26 17:24 37.27425 -107.39586 36102 ft 414 kts 266°
2026-03-26 17:24 37.27027 -107.46845 36065 ft 414 kts 266°
2026-03-26 17:25 37.26636 -107.54006 36024 ft 414 kts 266°
2026-03-26 17:25 37.26436 -107.57608 36161 ft 414 kts 266°
2026-03-26 17:25 37.26232 -107.61211 36173 ft 414 kts 266°
2026-03-26 17:26 37.25826 -107.68406 36191 ft 413 kts 266°
2026-03-26 17:26 37.25416 -107.75591 36208 ft 412 kts 266°
2026-03-26 17:27 37.25001 -107.82769 36003 ft 412 kts 266°
2026-03-26 17:27 37.24585 -107.89939 36006 ft 412 kts 266°
2026-03-26 17:28 37.24162 -107.97109 36004 ft 412 kts 266°
2026-03-26 17:28 37.23735 -108.04272 36007 ft 411 kts 266°
2026-03-26 17:29 37.23306 -108.11393 36016 ft 411 kts 265°
2026-03-26 17:29 37.22906 -108.17931 36027 ft 411 kts 265°
2026-03-26 17:30 37.22484 -108.24797 36022 ft 411 kts 265°
2026-03-26 17:30 37.22042 -108.31989 36030 ft 411 kts 265°
2026-03-26 17:31 37.21591 -108.39103 36023 ft 411 kts 266°
2026-03-26 17:31 37.21142 -108.46252 36015 ft 411 kts 266°
2026-03-26 17:32 37.20686 -108.53406 36023 ft 411 kts 266°
2026-03-26 17:32 37.20226 -108.60578 36028 ft 412 kts 265°
2026-03-26 17:33 37.19757 -108.67799 36037 ft 413 kts 266°
2026-03-26 17:33 37.19293 -108.74944 35995 ft 414 kts 265°
2026-03-26 17:34 37.18812 -108.82136 35989 ft 414 kts 265°
2026-03-26 17:34 37.18335 -108.89325 35985 ft 414 kts 265°
2026-03-26 17:35 37.17851 -108.96521 35984 ft 414 kts 265°
2026-03-26 17:35 37.17362 -109.03723 35969 ft 415 kts 265°
2026-03-26 17:36 37.16866 -109.10926 35970 ft 415 kts 265°
2026-03-26 17:36 37.16368 -109.18131 35962 ft 415 kts 265°
2026-03-26 17:37 37.15866 -109.25343 35973 ft 416 kts 265°
2026-03-26 17:37 37.15356 -109.32572 35965 ft 417 kts 265°
2026-03-26 17:38 37.14842 -109.39809 35959 ft 417 kts 265°
2026-03-26 17:38 37.14324 -109.47043 35955 ft 417 kts 265°
2026-03-26 17:39 37.13948 -109.52225 35956 ft 418 kts 265°
2026-03-26 17:39 37.13694 -109.55729 35951 ft 418 kts 265°
2026-03-26 17:40 37.13511 -109.58270 35949 ft 418 kts 265°
2026-03-26 17:40 37.13333 -109.60665 35948 ft 418 kts 265°
2026-03-26 17:41 37.13184 -109.62703 35945 ft 418 kts 265°
2026-03-26 17:41 37.13049 -109.64549 35947 ft 418 kts 265°
2026-03-26 17:42 37.12927 -109.66231 35947 ft 418 kts 265°
2026-03-26 17:42 37.12809 -109.67830 35942 ft 418 kts 265°
2026-03-26 17:43 37.12519 -109.71760 35941 ft 419 kts 265°
2026-03-26 17:43 37.11975 -109.79022 35941 ft 419 kts 265°
2026-03-26 17:44 37.11431 -109.86295 35935 ft 420 kts 265°
2026-03-26 17:44 37.10881 -109.93576 35921 ft 420 kts 264°
2026-03-26 17:45 37.10325 -110.00862 35928 ft 420 kts 264°
2026-03-26 17:45 37.09765 -110.08155 35925 ft 421 kts 264°
2026-03-26 17:46 37.09199 -110.15451 35927 ft 421 kts 264°
2026-03-26 17:46 37.08633 -110.22710 35930 ft 422 kts 264°
2026-03-26 17:47 37.08055 -110.30031 35931 ft 423 kts 264°
2026-03-26 17:47 37.07473 -110.37361 35928 ft 423 kts 264°
2026-03-26 17:48 37.06884 -110.44696 35929 ft 424 kts 264°
2026-03-26 17:48 37.06393 -110.50801 35924 ft 424 kts 264°
2026-03-26 17:49 37.05796 -110.58154 35929 ft 425 kts 264°
2026-03-26 17:49 37.05193 -110.65509 35947 ft 425 kts 264°
2026-03-26 17:50 37.04587 -110.72871 35945 ft 425 kts 264°
2026-03-26 17:50 37.03974 -110.80236 35940 ft 425 kts 264°
2026-03-26 17:51 37.03359 -110.87608 35962 ft 427 kts 264°
2026-03-26 17:51 37.02734 -110.94996 35949 ft 427 kts 264°
2026-03-26 17:52 37.02072 -111.02361 35917 ft 424 kts 263°
2026-03-26 17:52 37.01432 -111.09668 35925 ft 420 kts 264°
2026-03-26 17:53 37.00826 -111.16919 36016 ft 418 kts 263°
2026-03-26 17:53 37.00200 -111.24136 36070 ft 417 kts 263°
2026-03-26 17:54 36.99561 -111.31329 36103 ft 415 kts 263°
2026-03-26 17:55 36.98629 -111.41938 36132 ft 414 kts 263°
2026-03-26 17:55 36.97993 -111.49079 36130 ft 413 kts 263°
2026-03-26 17:56 36.97354 -111.56196 36116 ft 411 kts 263°
2026-03-26 17:56 36.96826 -111.59707 35931 ft 410 kts 256°
2026-03-26 17:56 36.96094 -111.63150 35931 ft 410 kts 255°
2026-03-26 17:57 36.94468 -111.69640 35930 ft 409 kts 250°
2026-03-26 17:57 36.92425 -111.76251 35924 ft 407 kts 250°
2026-03-26 17:58 36.90382 -111.82829 35936 ft 406 kts 250°
2026-03-26 17:58 36.88393 -111.89408 35940 ft 405 kts 250°
2026-03-26 17:59 36.86411 -111.95983 35961 ft 404 kts 250°
2026-03-26 17:59 36.84431 -112.02537 35961 ft 403 kts 250°
2026-03-26 18:00 36.82452 -112.09079 35965 ft 402 kts 250°
2026-03-26 18:00 36.80484 -112.15566 35990 ft 401 kts 250°
2026-03-26 18:01 36.79082 -112.20173 36012 ft 400 kts 250°
2026-03-26 18:01 36.77108 -112.26642 36019 ft 400 kts 250°
2026-03-26 18:02 36.75313 -112.32521 36027 ft 400 kts 250°
2026-03-26 18:02 36.73778 -112.37498 36025 ft 400 kts 250°
2026-03-26 18:03 36.71812 -112.43974 36023 ft 399 kts 250°
2026-03-26 18:03 36.69828 -112.50422 36017 ft 399 kts 249°
2026-03-26 18:04 36.67840 -112.56873 36011 ft 398 kts 249°
2026-03-26 18:04 36.65919 -112.63092 36020 ft 398 kts 249°
2026-03-26 18:05 36.64270 -112.68427 36011 ft 398 kts 249°
2026-03-26 18:05 36.62685 -112.73534 36004 ft 398 kts 249°
2026-03-26 18:06 36.60811 -112.79578 35999 ft 398 kts 249°
2026-03-26 18:06 36.58824 -112.85980 35989 ft 397 kts 249°
2026-03-26 18:07 36.56822 -112.92384 35996 ft 397 kts 249°
2026-03-26 18:07 36.54823 -112.98776 35996 ft 396 kts 249°
2026-03-26 18:08 36.52825 -113.05162 35995 ft 396 kts 249°
2026-03-26 18:08 36.50823 -113.11536 35991 ft 396 kts 248°
2026-03-26 18:09 36.48820 -113.17903 35987 ft 395 kts 248°
2026-03-26 18:09 36.46812 -113.24271 35981 ft 395 kts 248°
2026-03-26 18:10 36.44805 -113.30617 35988 ft 395 kts 248°
2026-03-26 18:10 36.42801 -113.36950 35975 ft 395 kts 248°